Date_and_time,latitude,longitude,wind_speed,RelWindDirFrom,WindDirFrom,air_pressure,air_temperature,relative_humidity,Temp,platform_speed_wrt_ground,air_pressure_at_mean_sea_level,platform_orientation
2019-10-19 00:00,50.6304283333333,-96.9807683333333,5.2,6.9,187,968.94,10.1,87,6.56,0.0,995.24,194.5
2019-10-19 00:10,50.6304266666667,-96.9807533333333,5.2,6.8,186,968.92,10.0,88,6.57,0.0,995.23,194.5
2019-10-19 00:20,50.6304266666667,-96.98076,6.4,8.1,193,968.89,9.9,89,6.57,0.0,995.20,194.5
2019-10-19 00:30,50.6304266666667,-96.9807633333333,7.7,10.0,200,968.89,9.8,89,6.57,0.0,995.21,194.5
2019-10-19 00:40,50.6304266666667,-96.9807616666667,8.0,10.6,201,968.81,9.9,89,6.57,0.0,995.13,194.5
2019-10-19 00:50,50.6304283333333,-96.9807633333333,7.2,9.0,193,968.71,9.9,89,6.57,0.0,995.03,194.5
2019-10-19 01:00,50.63043,-96.9807633333333,5.8,7.5,189,968.67,9.7,90,6.58,0.0,995.00,360.0
2019-10-19 01:10,50.6304316666667,-96.980765,4.8,5.9,189,968.65,9.5,92,6.59,0.0,994.99,360.0
2019-10-19 01:20,50.6304233333333,-96.98076,4.6,6.1,175,968.60,9.2,94,6.59,0.0,994.97,360.0
2019-10-19 01:30,50.6304283333333,-96.9807666666667,5.0,6.3,171,968.52,9.0,96,6.59,0.0,994.89,360.0
2019-10-19 01:40,50.6304283333333,-96.9807716666667,5.2,6.1,172,968.44,8.9,97,6.60,0.0,994.82,360.0
2019-10-19 01:50,50.6304566666667,-96.98079,5.3,6.3,164,968.38,8.7,99,6.61,0.0,994.77,360.0
2019-10-19 02:00,50.630435,-96.9807816666667,4.1,5.8,185,968.38,8.4,99,6.62,0.0,994.79,322.3
2019-10-19 02:10,50.6304533333333,-96.980775,3.5,5.0,193,968.37,8.6,99,6.64,0.0,994.77,322.3
2019-10-19 02:20,50.63044,-96.9807616666667,3.8,5.2,177,968.34,8.7,99,6.66,0.0,994.74,322.3
2019-10-19 02:30,50.6304383333333,-96.9807616666667,3.4,4.0,167,968.20,8.5,99,6.65,0.0,994.61,322.3
2019-10-19 02:40,50.6304383333333,-96.980765,2.6,3.4,161,968.18,8.3,99,6.67,0.0,994.60,322.3
2019-10-19 02:50,50.6304366666667,-96.980765,2.8,3.8,137,968.16,7.9,99,6.68,0.0,994.60,322.3
2019-10-19 03:00,50.6304333333333,-96.9807616666667,2.7,3.7,135,968.07,7.7,100,6.70,0.0,994.53,12.6
2019-10-19 03:10,50.6304316666667,-96.9807616666667,2.5,3.3,161,967.89,7.3,100,6.70,0.0,994.38,12.6
2019-10-19 03:20,50.6304333333333,-96.9807566666667,2.8,3.9,157,967.68,7.2,100,6.69,0.0,994.18,12.6
2019-10-19 03:30,50.6304333333333,-96.9807533333333,5.8,6.8,172,968.18,6.9,100,6.67,0.0,994.72,12.6
2019-10-19 03:40,50.6304366666667,-96.9807533333333,5.5,6.6,165,968.14,6.7,100,6.65,0.0,994.69,12.6
2019-10-19 03:50,50.6304366666667,-96.9807566666667,3.8,5.3,166,967.93,6.5,100,6.65,0.0,994.49,12.6
2019-10-19 04:00,50.6304366666667,-96.9807583333333,3.2,4.4,178,967.82,6.5,100,6.67,0.0,994.37,14.5
2019-10-19 04:10,50.6304416666667,-96.98076,2.1,3.1,185,967.78,6.4,100,6.67,0.0,994.34,14.5
2019-10-19 04:20,50.6304416666667,-96.9807666666667,2.9,3.4,193,967.95,6.5,100,6.68,0.0,994.52,14.5
2019-10-19 04:30,50.6304416666667,-96.98076,3.7,4.2,186,968.02,6.5,100,6.67,0.0,994.59,14.5
2019-10-19 04:40,50.6304583333333,-96.9807666666667,3.6,4.0,175,967.85,6.4,100,6.66,0.0,994.44,14.5
2019-10-19 04:50,50.6304433333333,-96.980785,3.7,4.1,177,967.76,6.2,100,6.65,0.0,994.37,14.5
2019-10-19 05:00,50.63044,-96.98077,3.5,3.9,174,967.83,6.1,100,6.64,0.0,994.46,66.4
2019-10-19 05:10,50.6304466666667,-96.9808016666667,3.1,3.5,169,967.76,6.0,100,6.64,0.0,994.41,66.4
2019-10-19 05:20,50.6304383333333,-96.9807616666667,3.7,4.3,189,967.77,6.0,100,6.63,0.0,994.43,66.4
2019-10-19 05:30,50.63044,-96.9807633333333,5.4,8.2,216,967.90,6.4,100,6.63,0.0,994.55,66.4
2019-10-19 05:40,50.63044,-96.98076,5.1,8.0,221,967.65,6.8,100,6.63,0.0,994.29,66.4
2019-10-19 05:50,50.6304433333333,-96.9808366666667,6.3,8.3,219,967.82,6.8,100,6.64,0.0,994.47,66.4
2019-10-19 06:00,50.63045,-96.98076,6.9,9.2,227,967.99,6.8,100,6.64,0.0,994.64,360.0
2019-10-19 06:10,50.6304416666667,-96.980755,6.4,10.7,233,968.06,6.8,100,6.64,0.0,994.71,360.0
2019-10-19 06:20,50.63044,-96.980755,5.3,7.5,243,967.88,7.0,99,6.64,0.0,994.51,360.0
2019-10-19 06:30,50.6304366666667,-96.9807533333333,5.7,8.4,251,967.72,7.2,99,6.65,0.0,994.35,360.0
2019-10-19 06:40,50.63044,-96.9807866666667,4.1,5.3,248,967.61,7.1,99,6.64,0.0,994.25,360.0
2019-10-19 06:50,50.6304366666667,-96.98077,4.0,5.8,247,967.63,7.1,99,6.63,0.0,994.27,360.0
2019-10-19 07:00,50.630435,-96.9807683333333,3.3,4.7,244,967.68,7.1,99,6.62,0.0,994.33,270.0
2019-10-19 07:10,50.63042,-96.9807683333333,4.0,5.8,210,967.82,6.9,99,6.61,0.0,994.48,270.0
2019-10-19 07:20,50.6304416666667,-96.9807616666667,3.4,6.8,151,967.64,6.9,100,6.60,0.0,994.28,270.0
2019-10-19 07:30,50.63044,-96.980755,6.8,9.9,159,967.53,6.5,100,6.60,0.0,994.16,270.0
2019-10-19 07:40,50.6304266666667,-96.9807533333333,6.9,9.9,216,968.00,6.6,100,6.62,0.0,994.64,270.0
2019-10-19 07:50,50.63041,-96.9807483333333,6.5,9.3,223,968.13,6.8,99,6.63,0.0,994.77,270.0
2019-10-19 08:00,50.6304233333333,-96.9807516666667,5.4,7.4,229,968.18,6.8,99,6.64,0.0,994.81,147.5
2019-10-19 08:10,50.6304233333333,-96.9807533333333,4.8,6.7,235,968.25,6.5,99,6.65,0.0,994.89,147.5
2019-10-19 08:20,50.6304233333333,-96.9807533333333,4.0,6.1,230,968.25,6.3,99,6.66,0.0,994.89,147.5
2019-10-19 08:30,50.6304266666667,-96.9807583333333,3.8,5.4,226,968.25,6.2,99,6.65,0.0,994.90,147.5
2019-10-19 08:40,50.6304283333333,-96.9807583333333,4.4,6.2,225,968.28,6.0,100,6.64,0.0,994.94,147.5
2019-10-19 08:50,50.6304283333333,-96.9807566666667,4.8,7.0,230,968.35,5.8,100,6.63,0.0,995.03,147.5
2019-10-19 09:00,50.63043,-96.980755,4.9,7.6,239,968.39,5.7,100,6.63,0.0,995.08,360.0
2019-10-19 09:10,50.6304316666667,-96.980755,5.2,7.8,250,968.41,5.8,99,6.62,0.0,995.10,360.0
2019-10-19 09:20,50.6304333333333,-96.9807566666667,4.9,7.3,257,968.50,5.6,99,6.64,0.0,995.22,360.0
2019-10-19 09:30,50.6304333333333,-96.980755,5.7,8.2,260,968.64,5.4,99,6.63,0.0,995.36,360.0
2019-10-19 09:40,50.630435,-96.980755,5.2,7.6,259,968.78,5.4,99,6.60,0.0,995.50,360.0
2019-10-19 09:50,50.630435,-96.980755,4.5,6.4,261,968.82,5.3,100,6.59,0.0,995.55,360.0
2019-10-19 10:00,50.630435,-96.9807566666667,4.1,6.4,262,968.93,5.1,100,6.57,0.0,995.68,90.0
2019-10-19 10:10,50.630435,-96.9807566666667,3.0,4.9,261,969.02,5.0,100,6.56,0.0,995.80,90.0
2019-10-19 10:20,50.6304283333333,-96.9807516666667,2.5,4.3,247,969.17,4.8,100,6.57,0.0,995.96,90.0
2019-10-19 10:30,50.6304283333333,-96.98075,2.7,3.8,244,969.28,4.7,100,6.57,0.0,996.09,90.0
2019-10-19 10:40,50.6304316666667,-96.9807683333333,2.1,3.4,230,969.37,4.6,100,6.57,0.0,996.20,90.0
2019-10-19 10:50,50.6304316666667,-96.9807616666667,2.4,2.9,208,969.50,4.4,100,6.57,0.0,996.34,90.0
2019-10-19 11:00,50.6304316666667,-96.9807583333333,3.6,4.6,222,969.60,4.2,100,6.59,0.0,996.46,311.7
2019-10-19 11:10,50.6304316666667,-96.9807683333333,4.1,5.0,228,969.59,4.1,100,6.60,0.0,996.46,311.7
2019-10-19 11:20,50.63043,-96.98076,4.1,4.8,226,969.68,4.1,100,6.60,0.0,996.56,311.7
2019-10-19 11:30,50.63043,-96.9807616666667,4.6,5.7,222,969.81,4.0,100,6.60,0.0,996.70,311.7
2019-10-19 11:40,50.6304283333333,-96.9807616666667,4.7,5.9,217,969.95,4.0,100,6.61,0.0,996.85,311.7
2019-10-19 11:50,50.6304266666667,-96.9807716666667,4.1,5.5,213,970.00,4.0,100,6.61,0.0,996.91,311.7
2019-10-19 12:00,50.630425,-96.9807566666667,5.0,6.7,216,970.01,4.0,100,6.62,0.0,996.92,90.0
2019-10-19 12:10,50.63042,-96.98076,5.5,7.6,226,969.96,4.1,100,6.62,0.0,996.88,90.0
2019-10-19 12:20,50.6304216666667,-96.9807633333333,5.3,7.8,230,970.00,4.1,100,6.63,0.0,996.93,90.0
2019-10-19 12:30,50.6304133333333,-96.98075,5.1,7.9,228,970.05,4.2,100,6.63,0.0,996.97,90.0
2019-10-19 12:40,50.6304316666667,-96.980785,5.2,7.1,240,970.09,4.3,100,6.63,0.0,997.02,90.0
2019-10-19 12:50,50.6304333333333,-96.9807833333333,4.8,6.8,242,970.12,4.4,100,6.63,0.0,997.05,90.0
2019-10-19 13:00,50.6304366666667,-96.98078,4.3,6.5,249,970.19,4.5,100,6.60,0.0,997.13,270.0
2019-10-19 13:10,50.63044,-96.9807766666667,3.5,6.1,268,970.22,4.8,100,6.57,0.0,997.14,270.0
2019-10-19 13:20,50.6304366666667,-96.9807733333333,4.9,8.0,221,970.45,4.9,100,6.57,0.0,997.38,270.0
2019-10-19 13:30,50.630425,-96.98078,5.6,7.8,225,970.71,4.9,100,6.57,0.0,997.65,270.0
2019-10-19 13:40,50.6304283333333,-96.9807683333333,4.7,6.8,225,970.83,4.8,100,6.55,0.0,997.78,270.0
2019-10-19 13:50,50.6304416666667,-96.9807666666667,4.7,6.6,215,970.92,4.7,100,6.54,0.0,997.88,270.0
2019-10-19 14:00,50.6304383333333,-96.9807516666667,5.4,6.7,201,971.11,4.5,100,6.54,0.0,998.07,14.5
2019-10-19 14:10,50.63042,-96.98075,6.1,7.7,208,971.26,4.4,100,6.52,0.0,998.23,14.5
2019-10-19 14:20,50.6304216666667,-96.9807466666667,6.4,8.3,211,971.34,4.5,100,6.52,0.0,998.31,14.5
2019-10-19 14:30,50.6304283333333,-96.9807583333333,6.5,8.3,213,971.29,4.5,100,6.52,0.0,998.24,14.5
2019-10-19 14:40,50.6304266666667,-96.9807566666667,6.4,9.7,222,971.30,4.6,100,6.52,0.0,998.24,14.5
2019-10-19 14:50,50.6304266666667,-96.9807616666667,6.1,9.4,240,971.34,4.8,100,6.53,0.0,998.27,14.5
2019-10-19 15:00,50.6304,-96.9807716666667,6.5,9.4,249,971.30,4.8,100,6.54,0.0,998.21,194.5
2019-10-19 15:10,50.6304116666667,-96.980765,5.7,8.1,253,971.34,4.9,100,6.54,0.0,998.25,194.5
2019-10-19 15:20,50.6304233333333,-96.9807766666667,4.7,7.0,255,971.36,5.1,100,6.54,0.0,998.26,194.5
2019-10-19 15:30,50.6304233333333,-96.9807666666667,5.2,8.1,264,971.49,5.3,100,6.54,0.0,998.38,194.5
2019-10-19 15:40,50.6304266666667,-96.9807583333333,5.2,8.4,264,971.51,5.5,100,6.55,0.0,998.41,194.5
2019-10-19 15:50,50.6304283333333,-96.98076,5.8,8.8,265,971.62,5.7,100,6.55,0.0,998.52,194.5
2019-10-19 16:00,50.6304283333333,-96.98076,5.4,7.8,261,971.79,5.9,99,6.56,0.0,998.69,122.3
2019-10-19 16:10,50.63043,-96.9807583333333,5.8,9.3,255,971.97,6.0,99,6.57,0.0,998.86,122.3
2019-10-19 16:20,50.63043,-96.9807583333333,5.8,8.5,260,972.06,6.2,99,6.57,0.0,998.95,122.3
2019-10-19 16:30,50.6304316666667,-96.98076,4.6,7.1,262,972.18,6.3,99,6.58,0.0,999.05,122.3
2019-10-19 16:40,50.6304316666667,-96.98076,4.7,7.0,248,972.32,6.3,99,6.59,0.0,999.19,122.3
2019-10-19 16:50,50.6304316666667,-96.98076,5.6,9.1,256,972.52,6.5,99,6.59,0.0,999.39,122.3
2019-10-19 17:00,50.6304483333333,-96.9807733333333,5.6,8.8,256,972.58,6.5,99,6.60,0.0,999.45,291.5
2019-10-19 17:10,50.6304433333333,-96.9807616666667,6.0,9.4,248,972.65,6.5,99,6.59,0.0,999.51,291.5
2019-10-19 17:20,50.6304433333333,-96.98076,7.9,11.4,277,972.65,6.5,99,6.60,0.0,999.50,291.5
2019-10-19 17:30,50.63044,-96.9807566666667,6.5,10.1,264,972.77,6.4,99,6.60,0.0,999.62,291.5
2019-10-19 17:40,50.6304383333333,-96.980755,6.6,10.3,265,972.86,6.4,98,6.62,0.0,999.70,291.5
2019-10-19 17:50,50.630435,-96.980755,6.0,9.1,267,972.88,6.5,96,6.63,0.0,999.70,291.5
2019-10-19 18:00,50.630435,-96.9807566666667,5.8,8.8,266,972.83,6.6,95,6.65,0.0,999.65,23.5
2019-10-19 18:10,50.6304333333333,-96.9807566666667,4.7,7.8,255,972.85,6.7,93,6.66,0.0,999.65,23.5
2019-10-19 18:20,50.630425,-96.980765,4.8,8.0,261,972.74,6.9,91,6.67,0.0,999.53,23.5
2019-10-19 18:30,50.63043,-96.9807733333333,3.1,7.1,250,972.60,7.1,89,6.69,0.0,999.36,23.5
2019-10-19 18:40,50.630425,-96.9807566666667,4.0,6.7,269,972.56,7.2,88,6.70,0.0,999.32,23.5
2019-10-19 18:50,50.6304216666667,-96.9807616666667,4.2,6.3,235,972.80,7.1,88,6.72,0.0,999.57,23.5
2019-10-19 19:00,50.630425,-96.9807716666667,3.4,5.5,211,972.78,7.1,88,6.73,0.0,999.54,270.0
2019-10-19 19:10,50.630425,-96.9807616666667,2.6,5.4,261,972.82,7.2,88,6.74,0.0,999.58,270.0
2019-10-19 19:20,50.6304266666667,-96.9807616666667,3.4,4.8,210,972.89,7.2,88,6.74,0.0,999.65,270.0
2019-10-19 19:30,50.63043,-96.9807616666667,3.9,5.6,215,972.89,7.5,85,6.73,0.0,999.64,270.0
2019-10-19 19:40,50.630425,-96.98075,3.0,5.6,196,972.91,7.9,82,6.74,0.0,999.64,270.0
2019-10-19 19:50,50.6304283333333,-96.980755,3.3,5.5,194,973.02,8.4,80,6.74,0.0,999.73,270.0
2019-10-19 20:00,50.63043,-96.9807583333333,3.5,5.7,193,973.09,7.9,83,6.74,0.0,999.81,165.5
2019-10-19 20:10,50.63043,-96.9807583333333,4.0,5.6,206,973.08,7.9,83,6.75,0.0,999.80,165.5
2019-10-19 20:20,50.630435,-96.9807666666667,4.2,5.7,200,973.02,8.0,83,6.75,0.0,999.72,165.5
2019-10-19 20:30,50.6304316666667,-96.9807666666667,4.6,6.5,190,973.07,8.1,82,6.75,0.0,999.76,165.5
2019-10-19 20:40,50.6304316666667,-96.980765,4.7,6.7,197,973.16,8.2,80,6.74,0.0,999.85,165.5
2019-10-19 20:50,50.63043,-96.980765,3.9,5.8,204,973.22,8.4,80,6.75,0.0,999.90,165.5
2019-10-19 21:00,50.6304283333333,-96.980765,4.2,6.6,204,973.31,8.6,79,6.79,0.0,999.99,194.5
2019-10-19 21:10,50.63043,-96.980765,3.2,4.7,203,973.40,8.7,79,6.83,0.0,1000.07,194.5
2019-10-19 21:20,50.63043,-96.9807633333333,4.4,5.8,202,973.46,8.7,78,6.85,0.0,1000.11,194.5
2019-10-19 21:30,50.6304283333333,-96.9807633333333,3.4,4.6,199,973.61,8.8,79,6.86,0.0,1000.25,194.5
2019-10-19 21:40,50.63043,-96.9807633333333,6.1,9.7,120,973.67,8.2,94,6.88,0.0,1000.31,194.5
2019-10-19 21:50,50.63043,-96.9807633333333,7.8,9.1,120,973.66,7.2,99,6.87,0.0,1000.38,194.5
2019-10-19 22:00,50.6304316666667,-96.9807633333333,8.1,10.0,114,973.77,7.1,99,6.86,0.0,1000.49,48.3
2019-10-19 22:10,50.6304316666667,-96.9807633333333,9.3,10.4,117,973.80,7.1,99,6.84,0.0,1000.52,48.3
2019-10-19 22:20,50.6304133333333,-96.9807583333333,9.1,10.0,118,973.87,7.0,99,6.84,0.0,1000.59,48.3
2019-10-19 22:30,50.630435,-96.9807616666667,8.3,9.4,121,973.95,6.9,100,6.85,0.0,1000.67,48.3
2019-10-19 22:40,50.630435,-96.9807616666667,6.3,8.4,133,974.08,6.4,99,6.85,0.0,1000.82,48.3
2019-10-19 22:50,50.630435,-96.98076,4.4,5.8,136,974.12,6.5,99,6.87,0.0,1000.85,48.3
2019-10-19 23:00,50.6304333333333,-96.98076,7.0,9.5,135,973.99,6.4,99,6.87,0.0,1000.71,360.0
2019-10-19 23:10,50.6304333333333,-96.98076,7.7,9.1,125,973.98,6.8,99,6.87,0.0,1000.68,360.0
2019-10-19 23:20,50.630435,-96.9807616666667,8.0,8.9,116,974.01,7.1,99,6.86,0.0,1000.70,360.0
2019-10-19 23:30,50.6304366666667,-96.9807616666667,7.2,9.1,129,974.09,6.7,99,6.85,0.0,1000.83,360.0
